Simultaneous Nadir Overpasses (SNOs) Predictions

Prediction of SNOs between NPP and METOP-C Satellite Orbit:

Table of predicted SNOs for the next 14.0 days since TLE Epoch: 12/9/2024
Index Date (NPP) Time (NPP) Lat,Lon (NPP) SZA (NPP ) Date (METOP-C) Time (METOP-C) Lat,Lon (METOP-C) SZA (METOP-C ) Distance(km) Time Diff (sec)
1 12/13/2024 13:57:43 73.32, -38.88 96.58 12/13/2024 13:58:51 73.27, -36.49 96.44 76.67 68
2 12/13/2024 14:48:26 -73.27, 128.54 83.47 12/13/2024 14:49:34 -73.22, 130.73 83.61 70.44 68
3 12/13/2024 15:39:07 73.02, -63.59 96.26 12/13/2024 15:40:18 72.99, -62.42 96.19 37.97 71
4 12/13/2024 16:29:50 -72.97, 103.83 83.79 12/13/2024 16:31:02 -72.89, 104.69 83.91 29.59 72
5 12/13/2024 17:20:32 72.76, -88.42 95.99 12/13/2024 17:21:45 72.72, -88.34 95.94 5.53 73
6 12/13/2024 18:11:15 -72.72, 78.99 84.06 12/13/2024 18:12:27 -72.72, 78.99 84.06 0.50 72
7 12/13/2024 19:02:01 72.71,-113.69 95.94 12/13/2024 19:03:07 72.70,-113.72 95.92 1.71 66
8 12/13/2024 19:52:45 -72.72, 53.61 84.06 12/13/2024 19:53:49 -72.70, 53.61 84.08 1.75 64
9 12/13/2024 20:43:31 72.71,-139.06 95.94 12/13/2024 20:44:28 72.73,-139.00 95.95 2.91 57
10 12/13/2024 21:34:15 -72.71, 28.24 84.05 12/13/2024 21:35:10 -72.73, 28.33 84.05 3.35 55
11 12/13/2024 22:25:01 72.71,-164.43 95.95 12/13/2024 22:25:50 72.71,-164.38 95.94 1.56 49
12 12/13/2024 23:15:45 -72.71, 2.87 84.05 12/13/2024 23:16:32 -72.71, 2.95 84.06 2.50 47
13 12/14/2024 00:06:31 72.70, 170.20 95.95 12/14/2024 00:07:12 72.68, 170.23 95.92 2.54 41
14 12/14/2024 00:57:14 -72.66, -22.39 84.10 12/14/2024 00:57:54 -72.69, -22.44 84.08 3.29 40
15 12/14/2024 01:48:00 72.65, 144.93 95.90 12/14/2024 01:48:34 72.66, 144.85 95.91 2.97 34
16 12/14/2024 02:38:44 -72.66, -47.77 84.10 12/14/2024 02:39:16 -72.67, -47.82 84.09 1.98 32
17 12/14/2024 03:29:30 72.65, 119.56 95.90 12/14/2024 03:29:56 72.64, 119.46 95.89 3.29 26
18 12/14/2024 04:20:14 -72.66, -73.14 84.10 12/14/2024 04:20:38 -72.64, -73.20 84.11 2.63 24
19 12/14/2024 05:11:00 72.65, 94.19 95.90 12/14/2024 05:11:17 72.67, 94.19 95.92 2.42 17
20 12/14/2024 06:01:44 -72.65, -98.51 84.09 12/14/2024 06:01:59 -72.67, -98.48 84.08 2.21 15
21 12/14/2024 06:52:30 72.65, 68.82 95.90 12/14/2024 06:52:39 72.65, 68.80 95.91 0.52 9
22 12/14/2024 07:43:14 -72.65,-123.88 84.09 12/14/2024 07:43:21 -72.65,-123.87 84.10 0.42 7
23 12/14/2024 08:34:00 72.65, 43.44 95.91 12/14/2024 08:34:01 72.63, 43.42 95.89 2.20 1
24 12/14/2024 09:24:43 -72.65,-149.25 84.09 12/14/2024 09:24:42 -72.63,-149.25 84.11 2.34 1
25 12/14/2024 10:15:29 72.64, 18.07 95.91 12/14/2024 10:15:21 72.66, 18.14 95.92 2.60 8
26 12/14/2024 11:06:13 -72.65,-174.62 84.09 12/14/2024 11:06:03 -72.66,-174.53 84.08 3.22 10
27 12/14/2024 11:56:59 72.64, -7.30 95.91 12/14/2024 11:56:43 72.64, -7.25 95.91 1.94 16
28 12/14/2024 12:47:43 -72.65, 160.01 84.09 12/14/2024 12:47:25 -72.64, 160.08 84.10 2.84 18
29 12/14/2024 13:38:29 72.64, -32.67 95.91 12/14/2024 13:38:05 72.61, -32.63 95.89 3.32 24
30 12/14/2024 14:29:12 -72.60, 134.74 84.14 12/14/2024 14:28:47 -72.62, 134.70 84.11 2.63 25
31 12/14/2024 15:19:58 72.59, -57.94 95.86 12/14/2024 15:19:27 72.59, -58.01 95.87 2.52 31
32 12/14/2024 16:10:42 -72.59, 109.37 84.13 12/14/2024 16:10:09 -72.60, 109.32 84.13 1.63 33
33 12/14/2024 17:01:28 72.59, -83.31 95.86 12/14/2024 17:00:49 72.57, -83.40 95.86 3.41 39
34 12/14/2024 17:52:12 -72.59, 84.00 84.13 12/14/2024 17:51:31 -72.57, 83.93 84.14 2.92 41
35 12/14/2024 18:42:58 72.59,-108.68 95.87 12/14/2024 18:42:10 72.60,-108.68 95.89 1.61 48
36 12/14/2024 19:33:42 -72.59, 58.62 84.13 12/14/2024 19:32:52 -72.60, 58.65 84.11 1.67 50
37 12/14/2024 20:24:28 72.58,-134.05 95.87 12/14/2024 20:23:32 72.58,-134.06 95.87 0.67 56
38 12/14/2024 21:15:12 -72.59, 33.25 84.13 12/14/2024 21:14:14 -72.58, 33.27 84.13 1.06 58
39 12/14/2024 22:05:58 72.58,-159.43 95.87 12/14/2024 22:04:54 72.56,-159.44 95.86 2.94 64
40 12/14/2024 22:56:42 -72.59, 7.88 84.13 12/14/2024 22:55:36 -72.56, 7.89 84.15 3.10 66
41 12/14/2024 23:47:28 72.58, 175.20 95.87 12/14/2024 23:46:15 72.59, 175.28 95.89 2.49 73
42 12/15/2024 00:38:12 -72.59, -17.49 84.12 12/15/2024 00:36:57 -72.59, -17.39 84.11 3.25 75
43 12/15/2024 01:28:54 72.38, 150.24 95.66 12/15/2024 01:27:41 72.36, 149.48 95.68 25.55 73
44 12/15/2024 02:19:36 -72.28, -42.25 84.45 12/15/2024 02:18:24 -72.31, -43.28 84.37 35.06 72
45 12/15/2024 03:10:18 72.07, 125.47 95.34 12/15/2024 03:09:09 72.03, 123.51 95.38 67.32 69
46 12/15/2024 04:01:00 -71.97, -67.04 84.77 12/15/2024 03:59:52 -71.98, -69.26 84.67 76.42 68



Historial Predications of SNOs between NPP and METOP-C
